カタログに戻る

H-2A R/B

運用中SSO
NORAD 27601·ROCKET BODY·🇯🇵 Japan

打ち上げ Dec 14, 2002 から Tanegashima Space Center

Loading…

次のパス (今後24時間)

TLE

最新Source: Space-Track

元期: Sep 14, 2026, 21:25 UTC

1 27601U 02056E   26257.89260039  .00000207  00000-0  87245-4 0  9997
2 27601  98.3411 211.3353 0069408 318.8825 103.8596 14.33862194241228

AllMySatでH-2A R/Bをリアルタイム追跡

Download on the App Store